Weather History for Louisa, VA

Change the Weather History Date:

Wednesday, October 9, 2013

  Actual Average (KCHO) Record (KCHO)
Temperature  
Mean Temperature 56 °F 58 °F  
Max Temperature 60 °F 70 °F 92 °F (2007)
Min Temperature 53 °F 46 °F 27 °F (2001)
Degree Days  
Heating Degree Days 8 8  
Month to date heating degree days 57  
Since 1 July heating degree days 115  
Cooling Degree Days 0 1  
Month to date cooling degree days 9  
Year to date cooling degree days 1030  
Growing Degree Days 6 (Base 50)    
Moisture  
Dew Point 51 °F    
Average Humidity 85    
Maximum Humidity 100    
Minimum Humidity 72    
Precipitation  
Precipitation 0.39 in 0.10 in 3.14 in (1976)
Month to date precipitation 1.01  
Year to date precipitation 33.63  
Sea Level Pressure  
Sea Level Pressure 30.24 in    
Wind  
Wind Speed 7 mph (North)    
Max Wind Speed 12 mph    
Max Gust Speed 21 mph    
Visibility 9 miles    
Events Rain    
T = Trace of Precipitation, MM = Missing Value Source: NWS Daily Summary

Daily Weather History Graph

Daily Weather History Graph

Search for Another Location

Airport:

Trip Planner

Search our weather history database for the weather conditions in past years. The results will help you decide how hot, cold, wet, or windy it might be!

Date:

Astronomy

Oct. 09, 2013 Rise Set
Actual Time 7:15 AM EDT 6:42 PM EDT
Civil Twilight 6:48 AM EDT 7:08 PM EDT
Nautical Twilight 6:18 AM EDT 7:39 PM EDT
Astronomical Twilight 5:47 AM EDT 8:09 PM EDT
Moon 12:04 PM EDT (10/9) 10:18 PM EDT (10/9)
Length of Visible Light 12h 20m
Length of Day
11h 27m
Waxing Crescent, 25% of the Moon is Illuminated
Oct 9
Waxing Crescent
Oct 11
First Quarter
Oct 18
Full
Oct 26
Last Quarter
Nov 3
New

Hourly Weather History & Observations

Time (EDT) Temp. Dew Point Humidity Pressure Visibility Wind Dir Wind Speed Gust Speed Precip Events Conditions
12:15 AM 53.6 °F 51.8 °F 94% 30.26 in 10.0 mi North 3.5 mph - N/A   Clear
12:35 AM 53.6 °F 51.8 °F 94% 30.26 in 10.0 mi North 3.5 mph - N/A   Clear
12:55 AM 53.6 °F 51.8 °F 94% 30.26 in 10.0 mi NNW 4.6 mph - N/A   Clear
1:15 AM 53.6 °F 51.8 °F 94% 30.26 in 10.0 mi North 4.6 mph - N/A   Clear
1:35 AM 55.4 °F 51.8 °F 88% 30.25 in 10.0 mi North 5.8 mph - N/A   Clear
1:55 AM 55.4 °F 51.8 °F 88% 30.25 in 10.0 mi North 5.8 mph - N/A   Clear
2:15 AM 55.4 °F 50.0 °F 82% 30.25 in 10.0 mi North 5.8 mph - N/A   Clear
2:35 AM 55.4 °F 50.0 °F 82% 30.25 in 10.0 mi North 4.6 mph - N/A   Clear
2:55 AM 53.6 °F 50.0 °F 88% 30.25 in 10.0 mi North 4.6 mph - N/A   Clear
3:15 AM 53.6 °F 50.0 °F 88% 30.22 in 10.0 mi North 5.8 mph - N/A   Clear
3:35 AM 55.4 °F 48.2 °F 77% 30.25 in 10.0 mi Calm Calm - N/A   Clear
3:55 AM 55.4 °F 48.2 °F 77% 30.24 in 10.0 mi North 5.8 mph - N/A   Clear
4:15 AM 53.6 °F 48.2 °F 82% 30.24 in 10.0 mi North 5.8 mph - N/A   Clear
4:35 AM 53.6 °F 48.2 °F 82% 30.22 in 10.0 mi North 6.9 mph - N/A   Clear
4:55 AM 55.4 °F 48.2 °F 77% 30.24 in 10.0 mi North 8.1 mph - N/A   Clear
5:15 AM 53.6 °F 48.2 °F 82% 30.24 in 10.0 mi North 5.8 mph - N/A   Clear
5:35 AM 53.6 °F 48.2 °F 82% 30.24 in 10.0 mi North 8.1 mph - N/A   Clear
5:55 AM 53.6 °F 48.2 °F 82% 30.22 in 10.0 mi North 6.9 mph - N/A   Clear
6:15 AM 53.6 °F 48.2 °F 82% 30.22 in 10.0 mi North 6.9 mph - N/A   Clear
6:35 AM 53.6 °F 48.2 °F 82% 30.24 in 10.0 mi North 6.9 mph - N/A   Clear
6:55 AM 53.6 °F 48.2 °F 82% 30.25 in 10.0 mi North 6.9 mph - N/A   Clear
7:15 AM 53.6 °F 48.2 °F 82% 30.26 in 10.0 mi North 8.1 mph - N/A   Clear
7:35 AM 53.6 °F 48.2 °F 82% 30.25 in 10.0 mi North 9.2 mph - N/A   Clear
7:55 AM 53.6 °F 48.2 °F 82% 30.26 in 10.0 mi North 9.2 mph - N/A   Clear
8:15 AM 55.4 °F 48.2 °F 77% 30.26 in 10.0 mi North 5.8 mph - N/A   Clear
8:35 AM 55.4 °F 48.2 °F 77% 30.26 in 10.0 mi North 6.9 mph - N/A   Clear
8:55 AM 55.4 °F 48.2 °F 77% 30.26 in 10.0 mi North 6.9 mph - N/A   Clear
9:15 AM 55.4 °F 48.2 °F 77% 30.27 in 10.0 mi North 6.9 mph - N/A   Clear
9:35 AM 55.4 °F 48.2 °F 77% 30.28 in 10.0 mi NNE 6.9 mph - N/A   Clear
9:55 AM 57.2 °F 48.2 °F 72% 30.28 in 10.0 mi North 8.1 mph - N/A   Clear
10:15 AM 57.2 °F 50.0 °F 77% 30.28 in 10.0 mi North 9.2 mph - N/A   Clear
10:35 AM 57.2 °F 50.0 °F 77% 30.28 in 10.0 mi North 10.4 mph - N/A   Clear
10:55 AM 57.2 °F 50.0 °F 77% 30.28 in 10.0 mi North 6.9 mph - N/A   Clear
11:15 AM 57.2 °F 50.0 °F 77% 30.28 in 10.0 mi North 8.1 mph - N/A   Clear
11:35 AM 57.2 °F 51.8 °F 82% 30.28 in 10.0 mi North 6.9 mph - N/A   Clear
11:55 AM 57.2 °F 51.8 °F 82% 30.27 in 10.0 mi North 9.2 mph - N/A   Clear
12:15 PM 59.0 °F 51.8 °F 77% 30.26 in 10.0 mi North 6.9 mph - N/A   Clear
12:35 PM 59.0 °F 51.8 °F 77% 30.26 in 10.0 mi North 10.4 mph 17.3 mph N/A   Clear
12:55 PM 60.8 °F 51.8 °F 72% 30.26 in 10.0 mi NNE 10.4 mph - N/A   Clear
1:15 PM 60.8 °F 51.8 °F 72% 30.25 in 10.0 mi NNE 6.9 mph - N/A   Clear
1:35 PM 60.8 °F 51.8 °F 72% 30.25 in 10.0 mi NNE 9.2 mph - N/A Rain Light Rain
1:55 PM 60.8 °F 53.6 °F 77% 30.25 in 10.0 mi NNE 8.1 mph - N/A   Drizzle
2:15 PM 59.0 °F 53.6 °F 82% 30.24 in 10.0 mi North 9.2 mph - N/A Rain Light Rain
2:35 PM 59.0 °F 53.6 °F 82% 30.24 in 10.0 mi NNE 8.1 mph - N/A Rain Rain
2:55 PM 57.2 °F 53.6 °F 88% 30.24 in 10.0 mi North 9.2 mph - 0.01 in Rain Light Rain
3:15 PM 57.2 °F 53.6 °F 88% 30.24 in 10.0 mi North 8.1 mph - 0.01 in Rain Rain
3:35 PM 57.2 °F 53.6 °F 88% 30.24 in 10.0 mi NNE 8.1 mph - 0.02 in Rain Rain
3:55 PM 57.2 °F 53.6 °F 88% 30.23 in 7.0 mi NNE 8.1 mph - 0.04 in Rain Light Rain
4:15 PM 57.2 °F 53.6 °F 88% 30.22 in 10.0 mi North 8.1 mph - 0.01 in Rain Light Rain
4:55 PM 57.2 °F 53.6 °F 88% 30.22 in 10.0 mi North 8.1 mph - 0.05 in Rain Light Rain
5:15 PM 57.2 °F 53.6 °F 88% 30.22 in 10.0 mi North 5.8 mph - 0.02 in Rain Light Rain
5:35 PM 55.4 °F 53.6 °F 94% 30.22 in 10.0 mi North 5.8 mph - 0.04 in Rain Light Rain
5:55 PM 55.4 °F 53.6 °F 94% 30.22 in 10.0 mi North 8.1 mph - 0.06 in Rain Light Rain
6:15 PM 55.4 °F 53.6 °F 94% 30.22 in 10.0 mi North 5.8 mph - 0.02 in Rain Light Rain
6:35 PM 55.4 °F 53.6 °F 94% 30.22 in 10.0 mi North 6.9 mph - 0.03 in Rain Rain
6:55 PM 55.4 °F 53.6 °F 94% 30.22 in 10.0 mi North 6.9 mph - 0.03 in Rain Rain
7:15 PM 55.4 °F 53.6 °F 94% 30.22 in 10.0 mi North 8.1 mph - 0.01 in   Drizzle
7:55 PM 55.4 °F 53.6 °F 94% 30.22 in 10.0 mi North 9.2 mph 16.1 mph 0.02 in   Light Drizzle
8:15 PM 55.4 °F 53.6 °F 94% 30.21 in 10.0 mi North 8.1 mph 16.1 mph N/A Rain Rain
8:35 PM 55.4 °F 53.6 °F 94% 30.21 in 4.0 mi NNE 9.2 mph - 0.01 in   Heavy Drizzle
8:55 PM 55.4 °F 53.6 °F 94% 30.21 in 4.0 mi North 10.4 mph 17.3 mph 0.03 in   Heavy Drizzle
9:15 PM 55.4 °F 53.6 °F 94% 30.21 in 4.0 mi North 8.1 mph - 0.01 in   Drizzle
9:35 PM 55.4 °F 53.6 °F 94% 30.21 in 4.0 mi North 10.4 mph 17.3 mph 0.05 in   Heavy Drizzle
9:55 PM 55.4 °F 53.6 °F 94% 30.21 in 10.0 mi North 9.2 mph 16.1 mph 0.07 in   Drizzle
10:15 PM 55.4 °F 53.6 °F 94% 30.20 in 7.0 mi North 10.4 mph - N/A   Drizzle
10:35 PM 55.4 °F 53.6 °F 94% 30.20 in 5.0 mi North 10.4 mph 18.4 mph 0.01 in   Heavy Drizzle
10:55 PM 55.4 °F 53.6 °F 94% 30.19 in 4.0 mi North 11.5 mph 20.7 mph 0.07 in Rain Rain
11:15 PM 53.6 °F 53.6 °F 100% 30.18 in 5.0 mi North 10.4 mph 19.6 mph 0.01 in   Drizzle
11:35 PM 55.4 °F 53.6 °F 94% 30.18 in 10.0 mi North 10.4 mph 17.3 mph 0.01 in   Drizzle
11:55 PM 55.4 °F 51.8 °F 88% 30.17 in 10.0 mi North 11.5 mph 18.4 mph 0.01 in   Light Drizzle